Regional Weather Roundup
Issued by NWS Grand Forks, ND

Home | Current Version | Previous Version | Text Only | Print | Product List | Glossary Off
Versions: 1 2 3 4 5 6 7 8 9 10 11 12 13 14 15 16 17 18 19 20 21 22 23 24 25 26 27 28 29 30 31 32 33 34 35 36 37 38 39 40 41 42 43 44 45 46 47 48 49 50

000
ASUS43 KFGF 010731
RWRFGF
PRAIRIE TO PINES  WEATHER ROUNDUP
NATIONAL WEATHER SERVICE EASTERN NORTH DAKOTA/GRAND FORKS ND
200 AM CDT WED OCT 01 2014

 **SATELLITE DATA USED TO AUGMENT SKY COVER AT AUTOMATED STATIONS**
 *****  WEATHER ACROSS EASTERN NORTH DAKOTA  *****

CITY           SKY/WX    TMP DP  RH WIND       PRES   REMARKS
GRAND FORKS    CLOUDY    60  53  77 SE20      29.50F
GRAND FRKS AFB CLOUDY    61  59  92 S21       29.49F
GRAND FRKS NWS   N/A     57 N/A N/A S16         N/A
DEVILS LAKE    CLOUDY    57  52  82 S24G31    29.39R
FARGO          PTCLDY    62  56  80 S22G31    29.57S
WAHPETON ARPT  SUNNY     59  54  82 S18G26    29.63S
$$

 ***** WEATHER ACROSS CENTRAL AND WESTERN NORTH DAKOTA  *****

CITY           SKY/WX    TMP DP  RH WIND       PRES   REMARKS
BISMARCK       CLOUDY    54  52  93 SW15      29.52R
MINOT          LGT RAIN  51  50  96 W12       29.41R FOG
JAMESTOWN      CLOUDY    57  51  80 SW17G24   29.50R
MINOT AFB      DRIZZLE   52  52 100 W9        29.41R
GARRISON         N/A     51  50  96 W12       29.45R
WILLISTON      CLOUDY    53  51  93 SW8       29.48F
DICKINSON      CLOUDY    54  51  90 W16       29.53R
HETTINGER      CLOUDY    53  51  93 SW12      29.59R
$$

 *****  OTHER AIRPORT OBSERVATIONS IN OUR AREA  *****

CITY           SKY/WX    TMP DP  RH WIND       PRES   REMARKS
WALHALLA       FAIR      57  55  94 SE20      29.46F
GRAFTON AIRPOR CLOUDY    57  52  82 SE23G32   29.48F
VALLEY CITY AR PTSUNNY   57  57 100 S14G23    29.53R
CANDO          CLOUDY    57  55  94 S21G29    29.36F FOG
CAVALIER APRT  CLOUDY    57  52  82 SE13G25   29.47F
GWINNER        SUNNY     61  55  82 S20       29.59S
ROLLA          CLOUDY    52  52 100 SE17G23   29.36F FOG
 ***** THE ABOVE OBSERVATIONS ARE NON NWS ARE NOT QUALITY
       CONTROLLED AND MAY MIS-REPORT RAIN FOR SNOW...
$$

  *****  WEATHER ACROSS NORTHERN MINNESOTA  *****

CITY           SKY/WX    TMP DP  RH WIND       PRES   REMARKS
FLAG ISLAND    CLOUDY    52  45  76 SE15G24   29.69F
WARROAD        MOCLDY    52  46  82 SE14G20   29.68S
ROSEAU         CLOUDY    55  48  76 SE23G29   29.63F
HALLOCK        CLOUDY    61  52  72 SE20G28   29.51F
THF RVR FALLS  CLOUDY    59  50  72 SE23G32   29.59F
BAUDETTE       CLOUDY    49  42  77 SE10G21   29.72F
WASKISH        MOCLDY    50  45  81 SE13G24   29.72F
CROOKSTON      CLOUDY    61  54  77 S25G32    29.57S
STEPHEN NDAWN    N/A     59  52  77 SE21        N/A
GREENBUSH NDAW   N/A     55  48  76 SE17        N/A
$$
  *****  WEATHER ACROSS CENTRAL AND WEST MINNESOTA  *****

CITY           SKY/WX    TMP DP  RH WIND       PRES   REMARKS
FOSSTON        CLOUDY    55  48  76 SE21G30   29.64F
BEMIDJI        PTCLDY    49  45  85 SE16G22   29.72F
PARK RAPIDS    CLOUDY    51  46  83 SE21      29.74F
ELBOW LAKE     CLOUDY    58  56  91 SE17G29   29.69S
WADENA         CLOUDY    52  46  82 SE12G21   29.74S
DETROIT LAKES  CLOUDY    54  50  87 SE22G30   29.68S
MOORHEAD       NOT AVBL
FERGUS FALLS   CLOUDY    61  54  77 S20G26    29.68R
MORRIS MN      CLEAR     61  57  88 SE15      29.70S
STAPLES        CLOUDY    50  45  81 SE12      29.77R
$$
  *****  WEATHER ELSEWHERE ACROSS MINNESOTA  *****

CITY           SKY/WX    TMP DP  RH WIND       PRES   REMARKS
DULUTH         CLOUDY    49  45  86 SE13      29.90R
INTRNTL FALLS  CLOUDY    46  41  82 SE14      29.80F
ELY            MOCLDY    45  43  93 SE9       29.88F
CLOQUET        CLOUDY    46  45  93 E6        29.89R
WHEATON        CLEAR     57  55  94 SE14      29.68R
BRAINERD       PTCLDY    49  44  83 SE10G20   29.81S
HIBBING        CLOUDY    48  43  82 SE10      29.85F
ALEXANDRIA     CLOUDY    58  54  86 S15       29.76S
SAINT CLOUD    PTCLDY    53  47  79 SE10      29.81F
MINNEAPOLIS    MOCLDY    51  45  79 SE12      29.87F
$$

  *****  WEATHER ACROSS SOUTH DAKOTA  *****

CITY           SKY/WX    TMP DP  RH WIND       PRES   REMARKS
SIOUX FALLS    CLOUDY    63  60  90 S14       29.74F
BROOKINGS      NOT AVBL
WATERTOWN      MOCLDY    60  58  92 S14       29.69S
HURON          CLOUDY    61  59  93 S6        29.67S
SISSETON         N/A     62  60  93 SW14      29.64R
ABERDEEN       CLEAR     59  50  72 S15G23    29.63R
MITCHELL       MOCLDY    63  60  90 S13G20    29.68F
PIERRE         PTCLDY    54  47  77 S7        29.64R
MOBRIDGE       CLEAR     58  52  80 SW8       29.58R
RAPID CITY     CLOUDY    53  45  74 CALM      29.73R
$$

  *****  SOME WEATHER IN NEARBY STATES *****

CITY           SKY/WX    TMP DP  RH WIND       PRES   REMARKS
GLASGOW MT     CLOUDY    53  48  83 NW21G30   29.63S
GREAT FALLS MT CLOUDY    43  40  89 W6        29.91S
CHEYENNE WY    PTCLDY    46  36  68 W7        29.89S
SCOTTSBLUFF NE MOCLDY    52  46  80 N3        29.80R
OMAHA NE       TSTM      64  62  93 SE9       29.78R
DES MOINES IA  CLOUDY    64  56  75 SE9       29.82F
DAVENPORT IA   NOT AVBL
CHICAGO IL     CLOUDY    54  46  74 E14       30.00F
EAU CLAIRE WI  CLOUDY    47  42  83 SE9       29.97S
LA CROSSE WI   CLOUDY    51  44  77 E6        29.97R
$$

  *****  SOME NATIONAL WEATHER *****

CITY           SKY/WX    TMP DP  RH WIND       PRES   REMARKS
LA GUARDIA NY  CLOUDY    62  59  90 NE10      29.98F
RALEIGH NC     PTCLDY    57  56  96 CALM      29.94S FOG
ATLANTA GA     MOCLDY    67  64  90 CALM      29.94S
NEW ORLEANS LA PTCLDY    76  71  85 SE3       29.88S
OKLAHOMA CITY  MOCLDY    73  65  75 S16       29.75F
ALBUQUERQUE NM CLEAR     54  33  45 E6        29.96S
SALT LAKE CITY LGT RAIN  51  48  89 NW7       29.97R FOG
LOS ANGELES CA CLEAR     67  61  81 S5        29.77S
BOISE ID       MOCLDY    50  38  63 W9        30.03R
SEATTLE WA     CLOUDY    58  49  72 E6        30.18S
$$

*** WEATHER ACROSS MANITOBA...SASKATCHEWAN AND ONTARIO ***
                ***ONTARIO***

CITY           SKY/WX    TMP DP  RH WIND       PRES   REMARKS
GERALDTON      CLEAR     32  32 100 E2        30.03F FOG
THUNDER BAY    CLEAR     34  34 100 E6        30.00F
SIOUX LOOKOUT  CLEAR     45  39  81 SE9G18    29.87F
TORONTO        CLOUDY    59  54  82 E10       30.03S
BIG TROUT LK   CLEAR     45  41  87 S13       29.86S
PICKLE LAKE    NOT AVBL
DRYDEN         MOCLDY    48  41  76 S17G23    29.81F
KENORA         MOCLDY    50  41  71 S18G24    29.73F
$$
                *** MANITOBA***

CITY           SKY/WX    TMP DP  RH WIND       PRES   REMARKS
BRANDON        LGT RAIN  50  48  93 E14       29.44F
DAUPHIN        CLOUDY    50  50 100 E7        29.49F
ISLAND LAKE    PTCLDY    46  43  87 SE6       29.70F
PILOT MOUND      N/A     52  50  93 SE22G28     N/A
THE PAS        LGT RAIN  50  50 100 SE6       29.52F
THOMPSON       LGT RAIN  50  50 100 CALM      29.61F
WINNIPEG       CLOUDY    55  48  76 SE22G28   29.55F
LYNN LAKE      FOG       48  48 100 S5        29.54S VSB 5/8
CHURCHILL      LGT RAIN  43  41  93 SE14G25   29.71F
GILLAM         CLOUDY    46  41  81 SE6       29.70F
$$
                ***SASKATCHEWAN***

CITY           SKY/WX    TMP DP  RH WIND       PRES   REMARKS
ESTEVAN        LGT RAIN  48  48 100 NW2       29.46F FOG
KINDERSLEY     CLOUDY    50  43  76 NW14G21   29.67S
LLOYDMINSTER   MOCLDY    48  43  81 NW14      29.69R
PRINCE ALBERT  CLOUDY    52  50  93 NW9       29.53F
REGINA         LGT RAIN  50  48  93 CALM      29.49S
YORKTON        LGT RAIN N/A N/A N/A MISG        N/A
N. BATTLEFORD  CLOUDY    50  48  93 NW13G18   29.63F
LA RONGE       DRIZZLE   50  50 100 NW7       29.55S
SASKATOON      LGT RAIN  52  50  93 NW9       29.58F
SWIFT CURRENT  LGT RAIN  48  46  93 NW18G24   29.62S
$$
NOTE: THESE ARE AUTOMATED STATIONS WITH LIMITED QUALITY CONTROL
      "FAIR" INDICATES FEW OR NO CLOUDS BELOW 12,000 FEET WITH NO
      SIGNIFICANT WEATHER AND/OR OBSTRUCTIONS TO VISIBILITY.
      SKY/WX - SKY CONDITION AND SIGNIFICANT WEATHER.
      TMP - AIR TEMPERATURE.    DP   - DEWPOINT TEMPERATURE.
      RH  - RELATIVE HUMIDITY.  PRES - PRESSURE.
      HX  - HEAT INDEX.         WCI  - WIND CHILL INDEX.
$



USA.gov is the U.S. government's official web portal to all federal, state and local government web resources and services.